Wind_Speed
8 8 6 6 4 7 15 18 19 1 2 6 5 2 12 9 11 5 15 18 26 22 25 29 26 26 24 22 19 16 14 11 9 6 5 4 4 4 4 4 3 3 3 2 2 3 3 5 5
10 9 7 5 6 11 11 6 9 6 21 7 2 3 5 3 14 13 14 13 24 21 23 28 28 26 25 23 21 18 16 13 11 9 7 6 4 3 4 4 5 4 5 4 4 5 6 7 6
13 16 7 5 10 14 13 7 7 8 11 4 4 5 2 4 12 13 14 9 23 18 19 25 29 28 26 24 23 20 18 16 14 11 9 7 5 5 5 6 6 6 6 7 7 7 8 9 9
9 9 7 8 18 21 16 11 12 19 10 3 4 5 4 13 5 8 7 10 22 19 17 23 27 29 27 26 24 22 21 19 16 13 10 9 7 6 8 8 9 9 9 9 10 11 11 11 11
17 8 11 14 19 20 17 10 8 7 9 6 1 3 11 10 13 8 8 9 12 20 20 20 24 29 29 27 25 22 20 19 16 14 11 10 9 8 8 9 10 11 11 11 11 13 14 14 12
7 7 11 14 21 21 17 2 12 9 10 9 5 6 2 15 14 8 7 9 10 15 23 23 22 28 31 29 27 24 21 19 17 15 13 11 9 9 9 9 12 13 12 11 11 11 11 11 13
16 12 16 20 21 21 8 7 12 13 7 10 11 4 7 15 12 6 4 8 11 12 23 21 20 24 30 31 29 26 24 22 19 18 15 12 12 12 11 12 14 14 13 13 12 12 13 13 12
13 14 22 20 19 21 17 8 12 13 8 9 3 3 4 7 7 10 11 15 21 22 23 26 23 23 29 33 31 29 26 24 22 20 17 15 14 15 16 17 18 17 16 13 13 13 14 15 14
19 15 16 22 23 21 18 16 14 20 3 13 10 11 13 16 16 17 11 16 17 14 27 31 29 24 23 25 25 31 30 27 24 22 20 18 16 14 17 21 19 16 16 15 15 16 15 15 16
17 16 26 21 22 21 20 17 19 15 6 12 18 17 18 18 7 13 13 14 18 20 20 32 35 33 28 26 25 26 31 30 28 24 21 18 16 14 16 10 13 20 19 15 16 17 17 14 14
22 23 24 23 23 23 23 22 23 22 18 18 19 15 15 14 13 11 17 22 18 21 25 20 38 36 35 31 29 31 27 27 27 25 22 20 17 17 14 17 20 20 17 14 12 17 15 13 12
26 30 27 28 26 26 26 25 28 25 24 17 22 17 16 12 13 14 18 21 19 22 21 24 33 37 36 31 31 31 27 28 28 28 26 24 19 15 17 15 12 19 16 16 12 12 12 13 14
29 29 29 29 27 28 28 29 28 28 25 24 24 20 21 15 13 24 22 20 18 18 17 20 29 39 38 33 29 29 28 28 26 25 28 24 20 17 16 16 14 12 11 11 13 11 12 11 15
27 29 30 30 29 28 28 29 28 26 25 24 23 21 22 22 15 21 16 18 18 16 16 17 24 34 37 39 31 27 28 23 26 23 20 23 21 17 14 14 16 13 15 14 14 11 12 15 14
30 31 30 30 30 30 26 32 29 25 25 24 27 22 22 21 18 17 13 15 14 17 13 10 9 25 34 30 35 18 23 23 23 18 16 17 19 17 13 13 12 15 14 16 17 17 15 14 17
32 32 30 28 30 34 27 32 25 25 23 24 23 21 20 18 17 8 20 15 18 18 13 10 12 26 28 24 25 25 19 23 14 19 17 17 15 15 13 14 15 15 11 10 13 15 15 15 14
29 24 33 31 29 29 29 33 26 26 25 25 20 20 18 21 11 10 19 18 20 17 16 13 14 25 26 21 18 22 18 17 24 14 14 15 16 15 17 15 15 14 15 16 15 15 14 14 13
22 30 30 28 26 28 31 29 27 24 26 24 21 16 15 22 15 10 20 24 3 4 2 5 13 22 23 19 18 18 15 16 16 15 14 13 14 14 14 15 16 14 13 15 13 14 14 14 14
27 31 33 29 27 28 26 25 28 23 21 22 20 15 17 21 16 15 17 12 8 5 6 11 17 17 22 19 19 17 18 15 16 14 14 12 10 12 14 16 14 12 14 15 13 14 13 11 9
34 32 30 29 28 24 23 26 26 22 22 20 19 17 16 19 13 10 12 13 10 10 10 11 14 17 21 18 19 18 18 19 17 17 16 14 13 11 14 12 13 13 13 13 12 13 12 10 12
31 31 28 31 25 27 24 26 25 24 25 20 19 20 15 15 18 20 6 13 13 13 14 14 16 20 20 17 20 14 18 4 10 5 7 14 11 10 11 11 11 9 11 12 12 13 14 10 12
29 28 29 28 23 20 19 19 25 20 21 20 20 17 16 16 21 16 6 11 15 15 15 16 17 19 19 19 15 12 9 9 10 12 10 8 8 8 8 9 9 9 7 8 12 13 15 12 11
34 21 27 28 25 21 23 14 29 17 17 16 13 14 16 15 15 8 15 15 18 18 17 18 18 19 16 18 15 12 10 8 5 4 1 3 6 8 8 8 7 8 8 8 8 11 11 13 13
26 26 29 26 19 19 26 19 29 19 19 17 16 17 17 13 13 11 17 19 20 19 20 20 20 17 17 15 12 14 12 3 3 3 1 3 6 8 7 8 7 8 9 9 9 10 9 12 14
31 23 17 19 17 21 17 19 23 21 19 18 18 15 14 10 13 18 17 14 18 20 21 21 20 17 16 13 10 7 6 3 1 3 2 4 4 2 5 6 6 6 8 5 7 9 9 10 11
29 25 16 25 17 19 21 26 20 21 21 19 15 10 12 16 14 16 15 14 18 21 22 21 20 18 16 14 12 10 8 7 4 3 2 3 1 3 6 5 4 3 4 6 7 8 8 8 9
30 28 31 22 21 19 16 18 30 27 20 14 7 12 14 14 15 15 15 15 20 22 22 22 20 18 17 15 12 10 7 3 0 2 1 2 4 6 7 5 5 5 5 6 7 7 5 5 5
31 21 25 19 25 24 20 22 14 11 15 12 13 9 11 16 16 15 15 14 21 22 21 21 19 18 16 15 12 11 7 3 2 1 3 4 5 7 8 5 4 5 6 5 3 4 4 6 5
24 25 23 21 18 16 15 14 12 2 9 6 9 13 12 17 16 16 15 17 21 22 21 19 18 17 16 15 11 9 7 4 4 5 5 5 6 9 7 6 6 5 7 5 5 4 5 7 6
29 25 25 19 24 17 13 15 5 2 5 5 11 15 19 17 16 16 16 15 20 19 20 18 18 17 16 14 13 15 7 8 6 6 6 6 8 8 7 6 7 7 6 4 2 5 5 7 8
Wind_Direction
217 195 183 242 250 234 244 247 278 38 264 86 28 346 355 338 14 57 146 142 136 164 168 171 174 172 173 174 173 173 172 168 166 164 164 165 169 178 188 195 200 197 206 207 261 273 271 279 282
197 196 229 261 250 253 246 330 31 278 19 29 262 266 278 11 46 96 125 130 147 168 173 176 178 178 180 181 180 181 179 175 176 180 180 183 191 210 224 234 229 231 247 259 259 265 272 268 264
209 232 261 224 233 249 272 191 202 184 206 275 310 134 222 70 77 83 108 136 144 158 180 182 182 184 185 188 187 186 186 185 184 189 189 193 207 228 238 246 247 244 252 264 268 267 265 265 261
210 227 252 253 264 249 263 178 109 247 231 109 247 339 69 91 102 74 99 155 149 159 173 192 189 190 192 195 196 194 191 193 191 194 195 200 215 235 247 245 243 249 257 262 265 267 263 260 262
246 257 248 255 258 267 288 272 158 283 299 271 187 30 76 100 113 118 126 171 179 172 176 198 203 198 198 202 203 202 200 199 199 204 206 210 222 233 246 245 242 246 251 262 267 270 272 256 256
224 224 259 254 254 257 264 47 295 304 306 287 254 278 113 152 120 112 136 180 207 192 177 197 206 206 205 206 209 209 207 207 209 214 213 220 229 240 250 253 253 249 247 258 261 268 269 266 255
243 244 243 256 270 279 271 282 266 286 303 15 8 161 348 101 113 121 171 194 207 221 177 200 200 210 213 211 212 213 213 213 214 217 219 224 234 242 251 260 254 245 244 250 260 265 269 260 255
237 253 264 267 270 270 287 280 282 289 283 80 33 257 300 138 189 173 227 224 199 202 194 191 197 208 212 218 216 216 218 218 220 220 222 227 236 245 257 263 255 252 250 248 256 265 273 264 252
237 253 253 257 262 272 285 314 304 293 138 292 312 307 300 291 282 315 303 275 278 261 201 181 190 200 208 211 220 219 220 222 225 224 224 227 233 248 260 258 251 243 243 244 255 267 273 272 264
228 242 243 246 269 280 274 264 270 275 262 251 299 268 249 287 337 261 272 288 284 291 289 195 189 188 195 191 209 225 225 221 223 221 224 228 232 241 243 247 232 236 239 249 268 272 267 265 263
231 242 249 257 255 271 275 296 296 290 267 275 280 279 305 302 311 300 287 277 291 303 300 303 194 189 186 182 196 212 213 215 218 220 215 218 232 237 243 247 244 232 232 243 255 262 248 244 247
240 235 242 254 261 270 274 278 286 289 294 283 280 292 293 297 307 298 286 283 295 293 304 300 203 186 188 185 189 196 199 205 208 213 212 211 216 227 237 247 259 225 215 236 248 242 238 255 247
238 245 248 251 258 261 267 272 279 279 284 293 294 288 291 281 265 271 265 286 296 296 303 297 194 191 190 187 190 194 198 202 205 208 208 205 220 223 227 228 233 206 220 255 245 229 245 251 255
247 244 255 259 257 257 263 270 272 275 284 283 277 271 275 266 272 273 279 286 292 285 282 282 181 194 195 192 190 204 205 204 203 202 197 202 208 222 232 236 237 237 244 249 254 247 239 257 254
252 259 261 256 261 263 269 265 260 271 268 269 274 275 272 272 267 259 282 293 317 302 271 257 196 205 193 190 194 192 203 203 199 198 207 203 210 217 229 233 241 238 246 248 257 253 250 247 250
249 253 257 251 255 257 258 263 264 270 276 274 279 280 271 259 261 289 282 295 296 280 253 246 213 194 188 183 191 201 205 208 200 200 211 209 208 217 231 237 244 250 241 246 249 249 239 239 249
245 248 251 250 248 264 258 267 265 253 256 258 258 268 271 277 256 269 278 281 276 258 233 212 195 179 175 177 186 197 203 202 211 211 202 209 215 221 229 239 250 247 251 259 253 245 234 238 241
223 235 241 256 248 249 248 254 261 255 257 259 247 256 267 273 256 252 277 287 256 145 195 201 182 165 168 172 184 196 198 198 204 212 213 220 210 221 239 250 249 243 256 254 240 236 235 238 243
237 240 246 253 252 247 254 261 266 276 274 261 268 266 266 260 260 241 259 260 127 142 146 152 157 160 163 165 179 185 201 188 216 217 215 215 223 232 257 247 242 248 251 245 233 226 224 230 206
242 251 253 262 265 260 261 257 259 248 252 261 263 240 254 281 292 275 261 126 139 147 155 161 166 173 166 172 182 194 196 193 207 212 214 215 221 243 241 247 247 255 250 241 226 219 220 225 213
238 238 245 256 265 266 268 269 270 268 270 264 257 270 252 257 278 281 251 138 142 148 157 166 170 161 163 174 192 200 187 155 174 190 215 214 221 232 231 245 251 252 243 232 221 215 213 207 222
242 233 243 249 251 257 254 269 256 262 264 257 255 253 255 246 251 249 193 140 149 150 154 157 157 160 175 184 185 164 161 195 214 217 167 168 204 226 244 250 254 250 235 229 219 218 218 214 215
245 244 248 247 251 261 254 259 267 269 268 269 276 265 259 247 259 251 133 146 145 143 147 150 151 171 181 162 167 179 216 209 164 186 189 225 248 245 235 246 246 232 232 227 213 222 222 219 222
247 240 251 258 257 247 243 242 264 258 263 270 270 261 246 252 235 227 123 140 134 144 146 150 160 174 152 178 170 177 206 59 100 156 89 291 274 275 232 232 226 224 226 221 224 228 220 213 221
237 236 234 236 235 241 244 241 255 265 266 272 273 266 268 264 248 127 136 142 140 148 147 154 166 149 167 176 156 166 139 153 228 258 309 279 270 241 217 206 209 230 227 210 211 207 201 210 221
225 232 228 223 226 241 240 252 260 254 258 253 279 227 239 232 116 127 141 139 149 150 154 163 161 160 169 165 164 160 162 198 221 171 245 247 204 169 161 174 192 186 175 190 187 193 204 216 223
234 221 235 249 240 245 255 243 236 243 245 241 239 233 235 129 129 137 142 147 149 152 162 160 161 163 170 163 159 160 165 212 149 108 183 186 145 153 164 160 162 172 159 161 182 194 192 198 215
236 228 223 230 232 246 236 240 253 186 224 226 196 222 200 135 137 145 145 153 149 155 162 159 162 163 166 160 160 168 166 182 207 356 119 139 154 162 142 137 167 188 181 176 190 199 176 140 138
227 227 221 241 225 236 246 264 295 83 171 174 195 195 184 141 147 147 150 148 150 156 158 160 166 162 163 162 161 148 152 160 125 105 137 141 147 143 136 152 154 150 164 163 189 158 158 137 122
233 226 230 218 218 228 247 237 68 134 229 175 260 178 145 142 148 148 150 153 153 161 155 163 161 166 165 165 167 149 144 129 116 119 124 139 154 165 152 141 145 151 144 163 155 169 168 150 134
Height
774 775 777 776 791 772 767 748 712 721 719 704 706 716 724 718 729 755 727 730 734 739 744 747 750 754 758 762 765 769 772 776 779 780 782 784 785 786 788 790 790 792 795 794 795 796 797 798 798
776 777 777 769 786 781 757 727 744 725 716 707 707 711 718 727 711 719 728 732 734 738 742 745 750 753 756 760 764 768 771 773 777 780 781 783 785 786 787 789 789 790 792 793 794 795 796 797 797
776 775 773 770 768 774 754 732 727 721 714 711 712 703 713 723 716 723 730 734 735 739 743 745 748 752 755 759 761 764 768 771 773 777 779 781 783 785 786 788 788 789 790 791 792 793 794 795 796
774 771 768 776 768 735 729 725 715 731 705 703 708 721 707 711 717 723 729 733 735 740 743 745 748 750 754 757 760 762 764 769 772 775 777 779 781 783 785 786 786 787 788 789 790 791 792 793 794
773 762 774 767 755 730 710 701 701 718 710 706 703 723 724 717 720 724 727 731 734 737 740 743 745 748 752 755 758 762 765 768 771 773 775 777 779 781 782 783 784 785 786 786 787 789 789 790 791
773 761 779 772 750 724 707 704 704 708 706 705 709 718 718 715 720 724 727 731 733 733 736 738 742 745 748 751 756 760 764 766 770 772 773 774 776 778 780 781 781 782 783 784 785 785 786 787 788
769 767 769 757 745 728 713 702 713 710 709 712 704 724 717 716 720 723 726 728 729 731 733 736 741 744 747 749 752 756 760 763 765 768 770 771 774 775 776 777 778 778 779 781 781 782 783 784 785
760 762 765 752 747 738 709 706 706 710 713 702 707 728 728 716 716 718 720 720 720 722 725 726 734 740 745 748 749 752 756 760 762 764 766 768 770 772 773 773 773 774 775 776 777 779 779 780 780
753 772 769 756 746 730 707 716 702 703 707 709 709 713 711 710 710 712 716 717 716 716 716 718 723 729 736 744 748 749 752 755 758 760 761 763 766 767 768 767 768 771 772 773 774 774 775 776 776
759 765 755 735 727 724 712 711 710 718 714 721 718 707 706 707 709 714 713 713 713 713 713 711 715 717 727 735 743 746 748 750 753 755 757 759 761 762 764 764 765 766 767 769 770 770 772 773 772
752 753 741 728 720 716 716 716 706 711 717 712 711 705 703 705 707 709 710 710 709 709 709 709 708 712 718 723 733 740 744 745 748 750 752 755 757 758 761 761 760 761 764 765 766 767 768 769 770
752 734 734 727 716 716 717 709 712 708 707 697 699 697 699 703 706 707 708 706 705 705 705 705 704 707 713 717 724 730 737 740 742 744 747 749 752 754 756 758 759 758 759 760 762 763 765 766 767
734 729 723 715 712 711 709 711 711 707 698 693 694 696 697 698 701 703 701 700 700 700 701 702 700 702 706 712 719 725 731 735 739 741 743 746 749 751 752 754 756 756 757 758 759 760 762 763 764
723 722 717 709 707 705 711 706 705 700 694 693 693 693 693 692 693 694 694 695 695 695 695 698 698 699 702 706 713 720 726 731 735 737 740 740 745 748 749 750 751 752 753 754 755 757 758 760 761
721 726 713 705 705 702 702 704 704 693 690 691 692 688 687 685 685 685 687 689 690 692 692 693 695 697 701 705 710 716 723 728 731 733 737 739 741 744 746 747 748 749 750 750 752 753 755 756 757
725 722 722 705 704 695 706 708 694 688 688 690 686 682 679 678 677 680 683 684 685 686 687 689 691 693 698 704 710 716 721 724 729 732 735 738 740 742 744 745 745 746 746 747 748 750 751 752 754
719 725 718 710 695 699 699 701 684 680 682 683 681 680 676 675 672 674 679 679 679 679 681 684 687 691 696 703 709 714 719 722 726 730 732 734 736 739 740 742 742 742 742 744 745 746 748 749 751
724 721 702 709 695 691 694 693 677 673 672 672 671 671 672 672 667 668 672 672 672 675 679 682 685 689 695 702 708 714 718 722 725 727 730 732 733 735 737 738 738 738 739 740 742 743 745 747 749
704 701 704 694 682 689 690 689 676 669 667 667 668 668 669 666 660 661 664 667 670 674 677 680 684 688 694 700 707 712 717 720 723 725 727 729 730 732 734 734 734 734 735 735 739 740 743 745 747
701 703 701 687 679 681 681 679 665 662 662 658 658 659 660 660 657 656 657 663 668 673 677 681 684 688 694 700 707 711 714 717 720 722 723 725 727 729 730 730 730 731 732 734 735 738 740 742 744
698 699 698 697 689 674 680 681 671 656 650 647 647 647 649 654 655 652 653 661 667 673 677 681 685 689 695 701 706 710 712 714 717 718 721 722 724 726 726 727 728 729 730 731 732 735 738 739 741
694 680 689 689 698 700 681 703 668 662 654 647 643 644 644 644 643 644 647 659 666 672 676 681 686 691 697 702 706 708 711 713 715 717 719 721 723 723 723 724 725 726 728 729 731 733 733 736 738
674 685 679 680 686 689 688 698 647 655 655 648 642 638 636 634 634 635 646 657 664 671 676 682 688 693 698 702 705 708 710 712 713 716 717 719 720 720 722 722 723 724 725 728 729 729 731 733 736
671 682 682 678 678 695 674 690 651 662 651 642 635 629 627 626 627 628 644 657 663 672 678 683 690 695 698 703 705 708 709 711 713 715 717 718 718 718 719 720 721 722 724 725 727 728 729 732 734
675 682 700 704 694 684 666 675 652 642 632 631 629 624 622 621 621 632 644 654 663 672 678 685 691 695 700 703 706 708 710 712 713 714 715 716 716 717 718 719 720 722 722 723 726 728 729 731 732
670 671 678 700 688 678 666 663 645 620 615 615 609 614 616 617 624 635 645 654 663 672 679 686 691 696 700 703 706 708 710 712 712 714 715 715 715 716 717 719 720 721 722 723 725 727 729 730 730
661 672 644 669 655 668 644 630 619 609 610 608 613 613 616 616 626 637 645 655 663 672 680 685 690 695 700 703 705 708 710 711 712 713 713 714 715 716 717 720 721 722 722 724 725 726 727 729 729
652 641 671 657 683 680 651 643 627 608 610 604 611 613 613 618 628 639 648 656 665 673 680 685 690 695 698 702 705 706 709 711 712 713 713 714 715 716 718 720 721 722 723 725 726 726 726 729 730
648 648 643 646 648 664 670 646 599 602 600 605 604 607 610 618 628 638 649 658 666 673 679 684 689 693 697 700 703 704 708 710 712 711 713 714 715 717 719 721 721 723 725 726 725 727 727 730 731
633 636 636 645 653 642 646 641 593 596 594 595 598 598 606 616 628 638 648 658 666 672 678 683 687 692 696 698 701 704 707 709 711 712 713 714 715 717 719 721 723 724 725 727 727 728 728 730 731